{"data":{"norad_id":59542,"epoch":"2026-09-21T10:28:18.958656Z","epoch_age_seconds":87350,"freshness":"FRESH","line1":"1 59542U 24074J   26264.43633054  .00000448  00000+0  25801-4 0  9995","line2":"2 59542  43.0037 317.8424 0001140 269.6671  90.4050 15.27579447135958","mean_motion":15.27579447,"eccentricity":0.000114,"inclination_deg":43.0037,"raan_deg":317.8424,"arg_perigee_deg":269.6671,"mean_anomaly_deg":90.405,"bstar":2.5801e-5,"rev_number":13595,"period_min":94.266782839217,"perigee_km":482.26857651737,"apogee_km":483.83292732481,"semimajor_km":6861.1877519211,"source":"CELESTRAK","updated_at":"2026-09-22T09:00:48.972446Z"}}